Tracking 22454 objects as of 5-Mar-2021
HD Live streaming from Space Station
objects crossing your sky now

CZ-3B R/B

Track CZ-3B R/B now!


NORAD ID: 41587
Int'l Code: 2016-037B
Perigee: 222.9 km
Apogee: 28,456.9 km
Inclination: 19.7 °
Period: 494.4 minutes
Semi major axis: 20710 km
RCS: Unknown
Launch date: June 12, 2016
Source: People's Republic of China (PRC)
Launch site: Xichang Space Center, China (XSC)

Note: This is a ROCKET BODY
aabbcc
Your satellite tracking list
Your tracking list is empty




NASA's NSSDC Master Catalog

Two Line Element Set (TLE):
1 41587U 16037B   21063.81502097  .00005308  00000-0  47642-3 0  9998
2 41587  19.6971  31.6450 6816233 234.8984  41.5945  2.91276865 45537
Source of the keplerian elements: AFSPC